Starlink 32155

operational
NORAD ID: 60274 Int'l Des: 2024-131 Owner: SPXS Country: US Constellation: starlink
LEOCIRCULAR

About Starlink 32155

Description loading...

Live Position

Loading 3D Globe...

Upcoming Passes

Altitude History

Altitude vs Time

uPlot chart will show altitude changes over time

Two-Line Element Set

1 60274U 24131V 25351.50630874 -.00000942 00000-0 -19688-4 0 9992
2 60274 53.1597 74.3249 0001061 103.3194 256.7925 15.30188264 79032
Epoch: Dec 17, 2025 • Age: 19 hours

Current Status

Altitude 476.6 km
Velocity 7.63 km/s
Sub-Earth Point 29.34°N, 98.63°W
Launch Date Jul 27, 2024
Age 1.3 years
Type internet

Technical Details

Classification Payload
Mass 730.00 kg
Dry Mass 700.00 kg
Total Mass 730.00 kg
Length 0.30 m
Diameter 4.10 m
Span 29.00 m
Shape Box + pan
Manufacturer SPXS
Bus Type Starlink V2M
Phase Status In Orbit
Owner/State SPXS/US

Large Constellations

Loading constellations...